Location: Habr
(49.7855°N, 13.6382°E)
Time: 22:54:54
(UTC+00:00)

Daily predictions for brighter satellites

Satellite Brightness Start Highest point End
(mag) Time Altitude Azimuth Time Altitude Azimuth Time Altitude Azimuth
Cosmos 1452 Rocket 4.0 19:47:46 10° NNW 19:52:58 62° WSW 19:58:08 10° S
SL-16 R/B 3.2 19:48:18 10° NNW 19:53:34 38° NE 19:58:48 10° ESE
Helios 1A 2.8 19:50:36 10° NNE 19:54:35 74° ESE 19:58:31 10° S
Cosmos 1727 Rocket 4.1 19:48:42 10° S 19:54:43 58° E 20:00:46 10° NNE
CZ-4 R/B 4.1 19:58:13 10° WSW 20:00:05 13° W 20:01:57 10° WNW
IRS-1C Rocket 4.3 19:55:13 10° SSE 20:00:24 65° ENE 20:05:37 10° N
Cosmos 2227 Rocket 2.7 19:55:17 10° S 20:00:27 39° ESE 20:05:40 10° NE
Terra 2.0 19:56:05 10° S 20:00:47 72° WSW 20:05:31 10° NNW
COSMOS 2455 2.9 19:54:44 10° NW 20:00:48 87° SW 20:06:50 10° SSE
Cosmos 2100 Rocket 4.2 19:55:42 10° N 20:01:49 59° ENE 20:07:52 10° SSE
SPOT 5 4.4 19:58:12 10° SSW 20:02:18 33° W 20:06:37 10° NNW
PSLV R/B 4.3 20:00:30 10° SE 20:03:32 35° ENE 20:06:35 10° N
USA 276 2.8 20:03:48 10° WSW 20:05:22 20° SSW 20:07:04 10° SSE
Cosmos 2263 Rocket 3.4 20:01:09 10° SSE 20:05:27 23° ESE 20:09:47 10° NE
RESURS DK-1 3.5 20:04:57 10° SSE 20:08:10 23° ESE 20:11:23 10° NE
Cosmos 1980 4.1 20:03:39 10° NW 20:09:14 61° WSW 20:14:46 10° SSE
Cosmos 1300 4.0 20:06:41 10° NNW 20:09:29 30° W 20:12:16 10° SSW
Okean O Rocket 2.9 20:09:25 10° SSW 20:13:24 36° W 20:17:24 10° NNW
Spot 2 Rocket 3.6 20:08:54 10° SSE 20:13:58 81° WSW 20:19:05 10° NNW
Helios 1B rocket 4.4 20:15:15 10° SSW 20:18:11 22° W 20:21:08 10° NW
USA 238 DEB 4.5 20:15:34 10° NW 20:22:44 54° WSW 20:30:27 10° SSE
USA 238 4.5 20:15:39 10° NW 20:22:50 55° WSW 20:30:34 10° SSE
ERS-1 Rocket 4.1 20:19:36 10° SSW 20:24:19 41° W 20:29:04 10° NNW
Cosmos 1437 Rocket 3.3 20:21:19 10° SSE 20:24:31 34° E 20:27:47 10° NNE
Cosmos 921 Rocket 2.9 20:20:32 10° SSW 20:24:45 72° ESE 20:29:06 10° NNE
Cosmos 2219 4.2 20:21:09 10° SSE 20:25:57 28° ESE 20:30:47 10° NE
SL-14 R/B 3.3 20:28:51 10° SSW 20:32:46 81° W 20:36:43 10° N
Cosmos 2123 Rocket 4.2 20:27:33 10° S 20:33:41 59° E 20:39:49 10° NNE
SL-8 R/B 3.7 20:35:25 10° W 20:40:10 66° SSW 20:44:54 10° ESE
USA 290 3.9 20:41:32 15° SE 20:42:45 18° ESE 20:45:02 10° ENE
Cosmos 2237 Rocket 3.3 20:37:42 10° NW 20:42:53 37° WSW 20:48:02 10° S
Cosmos 1459 Rocket 4.1 20:36:36 10° N 20:42:57 81° W 20:49:18 10° S
Cosmos 1809 Rocket 4.5 20:39:20 10° S 20:45:28 77° E 20:51:37 10° NNE
ARIANE 5 R/B 4.5 20:43:48 10° ESE 20:47:05 21° ENE 20:50:23 10° NNE
Cosmos 546 4.5 20:44:04 10° WSW 20:47:50 67° SSE 20:51:38 10° ENE
Cosmos 1802 Rocket 4.1 20:41:25 10° N 20:47:54 87° E 20:53:56 12° S
Meteor 1-15 Rocket 4.2 20:42:14 10° NNW 20:47:54 86° W 20:53:03 12° S
Meteor 2-14 Rocket 4.5 20:42:02 10° S 20:48:09 76° E 20:54:17 10° NNE
SL-4 R/B 3.4 20:47:40 15° SSE 20:49:12 18° SE 20:51:57 10° E
Cosmos 2061 Rocket 4.3 20:43:18 10° N 20:49:30 55° ENE 20:54:39 15° SSE
USA 305 2.3 20:48:23 10° SW 20:52:15 67° SSE 20:55:29 10° ENE
Cosmos 1953 2.8 20:50:05 10° N 20:53:40 42° ENE 20:56:11 17° SE
SL-08 R/B 4.5 20:50:26 10° N 20:56:34 75° E 21:01:43 15° SSE
Lacrosse 4 Rocket 2.1 20:56:59 10° NW 21:01:00 44° WSW 21:04:06 16° S
NOSS 3-4 (A) 4.0 20:58:03 10° WSW 21:03:24 56° NW 21:09:24 10° NE
NOSS 3-4 (C) 4.0 20:58:09 10° WSW 21:03:30 57° NW 21:09:30 10° NE
DNEPR-1 R/B 4.2 20:59:44 10° SSW 21:05:37 56° SE 21:10:29 10° NE
Cosmos 1818 3.8 21:00:55 10° SW 21:06:21 74° NW 21:11:50 10° NE
Cosmos 2016 Rocket 4.1 21:00:42 10° N 21:07:03 83° W 21:12:39 14° S
Cosmos 1455 4.3 21:09:35 10° WNW 21:10:31 11° W 21:11:25 10° WSW
Meteor 2-21 4.5 21:05:10 10° S 21:11:21 89° E 21:17:31 10° N
Cosmos 1892 4.2 21:10:55 13° ESE 21:11:36 14° E 21:13:16 10° NE
Ariane Rocket 4.0 21:09:58 10° SSW 21:14:45 41° W 21:19:35 10° NNW
Cosmos 1844 Rocket 4.3 21:13:11 14° SE 21:15:27 17° E 21:19:01 10° ENE
Cosmos 2297 Rocket 3.9 21:10:50 10° WSW 21:16:01 36° NW 21:21:15 10° NNE
USA 59 Rocket 2.1 21:14:22 10° NNW 21:16:39 17° NNE 21:19:15 10° ENE
CZ-4C R/B 3.9 21:14:22 10° NE 21:17:16 29° E 21:18:25 23° SE
Cosmos 2228 Rocket 4.4 21:17:10 18° SE 21:19:26 26° E 21:23:08 10° NNE
GP-B 3.0 21:16:21 10° N 21:20:46 90° ESE 21:24:00 18° S
Cosmos 1269 Rocket 4.0 21:20:32 12° SSW 21:25:20 71° ESE 21:30:37 10° NNE
Cosmos 2084 Rocket 4.3 21:23:09 10° WNW 21:26:56 34° WSW 21:29:07 20° S
ATLAS CENTAUR R/B 3.2 21:26:30 10° WNW 21:29:05 17° WSW 21:31:05 12° SSW
Cosmos 1707 Rocket 4.4 21:28:01 21° SE 21:30:11 35° E 21:34:07 10° NNE
Cosmos 540 Rocket 4.4 21:26:09 10° NNW 21:30:57 39° ENE 21:34:50 15° ESE
Cosmos 1933 Rocket 4.4 21:27:10 10° NNW 21:31:21 43° W 21:34:40 15° SSW
IRIDIUM 103 4.4 21:33:34 21° SSE 21:37:01 64° E 21:42:11 10° N
SL-16 R/B 2.9 21:32:25 10° NW 21:37:47 45° WSW 21:41:38 18° S
ALOS 2 3.8 21:37:03 16° ESE 21:39:52 33° ENE 21:43:48 10° N
ATLAS 2AS CENTAUR R/B 4.4 21:37:43 13° SE 21:39:56 15° ESE 21:43:31 10° ENE
DELTA 2 DEB (DPAF) 3.9 21:37:44 10° NNE 21:41:39 75° WNW 21:44:30 18° SSW
Cosmos 2344 4.0 21:34:19 10° NW 21:42:16 83° NE 21:52:06 13° SE
Cosmos 1733 Rocket 3.1 21:38:13 10° N 21:42:36 66° ENE 21:45:01 25° SSE
Cosmos 2227 Rocket 3.4 21:39:06 10° WSW 21:44:27 43° NW 21:49:51 10° NNE
Cosmos 2233 Rocket 4.3 21:38:29 10° NNW 21:44:43 62° W 21:49:37 17° S
RESURS DK-1 3.6 21:41:37 10° SW 21:45:27 41° NW 21:49:17 10° NNE
Cosmos 1869 Rocket 4.3 21:41:27 10° NNW 21:45:40 47° W 21:48:34 18° SSW
Cosmos 2263 Rocket 2.5 21:43:10 10° SW 21:48:49 70° WNW 21:54:31 10° NNE
Okean 2 3.2 21:50:02 24° SSW 21:52:18 85° W 21:56:14 10° N
Okean 3 3.3 21:50:57 23° SSW 21:53:26 84° W 21:57:33 10° N
CZ-2C R/B 3.8 21:48:57 10° NNE 21:53:27 62° ESE 21:56:00 25° S
IRIDIUM 106 4.3 21:51:50 22° S 21:55:18 88° E 22:00:33 10° N
Aureole 3 Rocket 2.9 21:52:44 10° N 21:55:48 49° ENE 21:57:13 29° SE
ASTEX 1 3.4 21:54:23 10° N 21:59:22 81° E 22:02:22 24° S
Cosmos 1943 3.2 21:53:48 10° NNW 21:59:32 80° WSW 22:03:04 24° SSE
SeaSat 1 3.6 21:57:55 11° ESE 22:02:14 37° NE 22:06:44 10° NNW
Cosmos 1763 Rocket 3.4 22:04:18 10° NNW 22:09:29 89° ENE 22:12:23 26° SSE
Cosmos 2219 3.8 22:04:06 10° SW 22:09:45 57° NW 22:15:27 10° NNE
MetOp-A 3.9 22:10:28 26° S 22:13:06 69° WSW 22:17:38 10° NNW
Cosmos 1862 Rocket 3.5 22:11:30 27° S 22:13:56 88° W 22:18:22 10° N
USA 290 3.9 22:14:12 11° WSW 22:16:55 30° WNW 22:19:49 10° N
Cosmos 1603 3.7 22:11:25 10° NNW 22:17:04 80° ENE 22:20:41 23° SE
Cosmos 1271 Rocket 3.4 22:16:29 29° SE 22:17:29 35° E 22:20:49 10° NNE
Cosmos 2082 4.1 22:13:31 10° SW 22:19:11 63° WNW 22:24:54 10° NNE
Cosmos 2292 Rocket 3.5 22:18:12 27° SW 22:19:23 42° WNW 22:22:11 10° N
USA 305 3.5 22:17:32 10° W 22:20:57 40° NNW 22:23:35 10° ENE
Okean 1-7 2.8 22:19:41 32° S 22:21:34 77° E 22:25:42 10° NNE
ARIANE 5 R/B 3.0 22:20:49 27° SSW 22:23:02 56° W 22:27:27 10° NNW
SL-4 R/B 1.9 22:22:36 10° SW 22:26:41 62° SSE 22:30:38 10° ENE
Cosmos 1953 4.4 22:26:08 10° NW 22:28:37 17° W 22:30:44 11° WSW
Cosmos 1140 Rocket 4.2 22:26:48 10° SW 22:31:42 49° WNW 22:36:41 10° NNE
Spot 4 4.0 22:30:33 28° S 22:33:01 65° WSW 22:37:50 10° NNW
NOSS 2-1 (C) 3.9 22:32:04 10° NW 22:35:23 51° NE 22:38:47 15° ESE
PSLV R/B 3.8 22:32:22 10° NNE 22:36:37 57° ESE 22:38:27 32° SSE
Cosmos 1703 4.2 22:34:57 20° SW 22:36:46 35° WNW 22:40:00 10° N
Cosmos 2227 4.1 22:33:33 21° SSW 22:37:21 85° ESE 22:43:01 10° NNE
NOSS 3-1 (C) 4.2 22:30:37 10° NW 22:37:40 62° SW 22:43:29 22° SSE
NOSS 2-1 (E) 4.0 22:35:37 10° NW 22:38:58 50° NE 22:42:36 13° ESE
SJ 16-02 2.6 22:38:57 22° SE 22:40:16 26° E 22:43:51 10° NE
Cosmos 1300 Rocket 4.2 22:37:07 10° N 22:41:23 46° ENE 22:43:39 25° SE
Cosmos 1892 3.5 22:43:00 23° WSW 22:44:08 31° WNW 22:46:52 10° N
PSLV R/B 4.5 22:41:01 10° NNE 22:44:45 42° E 22:46:02 31° SE
USA 307 2.8 22:54:11 42° S 22:54:48 46° SE 22:58:38 10° ENE
Cosmos 407 Rocket 4.0 22:50:55 16° SW 22:54:50 55° WNW 22:59:53 10° NNE
Cosmos 2228 Rocket 4.2 22:54:32 18° SW 22:57:23 37° WNW 23:01:31 10° N
Cosmos 1844 Rocket 2.7 22:54:47 22° SSW 22:58:33 87° WNW 23:04:16 10° NNE
USA 234 3.8 22:54:54 10° ENE 23:00:53 37° SE 23:03:50 25° S
Cosmos 1703 Rocket 3.4 22:59:24 33° S 23:01:17 87° W 23:05:38 10° N
Cosmos 1782 Rocket 3.6 22:57:23 10° N 23:01:50 72° E 23:03:54 31° SSE
Cosmos 2251 Rocket 3.7 22:59:04 22° SW 23:02:35 72° WNW 23:07:58 10° NNE
OPS 6432 4.2 22:59:44 10° NW 23:03:00 65° SW 23:03:35 51° S
Cosmos 1844 3.6 22:59:50 24° SSW 23:03:21 90° WNW 23:08:57 10° NNE
USA 59 Rocket -0.3 23:02:24 10° NW 23:05:55 85° SW 23:08:26 25° SE
Cosmos 1954 Rocket 3.9 23:07:46 27° SSW 23:10:39 86° ESE 23:15:53 10° NNE
Cosmos 540 Rocket 4.4 23:07:46 10° NW 23:12:23 35° WSW 23:14:32 24° SSW
ATLAS 3B R/B 3.6 23:04:39 10° NW 23:12:27 57° NE 23:20:01 10° ESE
Cosmos 1190 Rocket 4.2 23:12:31 23° SW 23:15:51 72° WNW 23:21:09 10° NNE
Tsikada Rocket 4.0 23:12:12 26° S 23:15:52 83° E 23:22:11 10° N
ALOS 2 3.8 23:14:27 23° SW 23:16:11 31° W 23:20:08 10° NNW
Meteor 1-24 Rocket 3.8 23:13:40 26° S 23:17:11 89° E 23:23:08 10° NNE
Cosmos 1606 2.5 23:19:33 10° N 23:22:34 54° ENE 23:23:21 39° SE
Cosmos 841 Rocket 3.5 23:19:26 10° NNW 23:24:43 75° WSW 23:27:33 27° S
NOSS 3-1 (A) 4.1 23:18:57 10° NW 23:26:02 61° SW 23:32:25 19° SSE
Cosmos 2279 Rocket 4.2 23:20:06 10° N 23:26:17 67° ENE 23:30:32 21° SSE
ATLAS 2AS CENTAUR R/B 2.8 23:25:06 24° SSW 23:29:37 64° SE 23:36:28 10° NE
BREEZE-M DEB (TANK) 3.6 23:28:12 26° SSW 23:30:06 34° SSE 23:32:52 10° E
Meteor 2-5 Rocket 3.9 23:27:46 26° SSW 23:31:20 78° WNW 23:37:20 10° N
H-2A R/B 3.0 23:31:18 22° SE 23:33:18 44° ENE 23:36:47 10° N
Cosmos 2242 Rocket 3.9 23:31:50 29° SSE 23:33:56 56° E 23:38:18 10° NNE
SL-24 R/B - RUBIN 2 4.5 23:31:08 10° NW 23:36:07 54° NE 23:40:36 10° ESE
Cosmos 1833 Rocket 2.9 23:33:28 10° NNW 23:39:06 68° ENE 23:44:08 13° SE
SeaSat 1 3.0 23:37:33 28° SSW 23:39:34 42° WSW 23:44:15 10° NW
Landsat 4 3.9 23:40:02 30° ESE 23:41:03 44° ENE 23:43:51 10° N
USA 305 3.8 23:47:13 10° WNW 23:49:51 27° N 23:51:46 10° ENE
CZ-2C R/B 3.5 23:49:04 10° NNE 23:54:28 56° E 23:57:35 23° S
